Location: Diamond Heights Village
(37.7458°N, 122.4416°W)
Time: 16:23:34
(UTC+00:00)

Cosmos-2242 - Pass Details

Date: 13 June 2024
Orbit: 578 x 604 km, 82.5° (Epoch: 24 July)

Event Time Altitude Azimuth Distance (km) Brightness Sun altitude
Rises 11:59:16 0° 357° (N) 2,866 7.0 -8.7°
Reaches altitude 10° 12:01:32 10° 2° (N) 1,956 6.2 -8.3°
Maximum altitude 12:05:48 56° 81° (E) 715 3.8 -7.6°
Drops below altitude 10° 12:09:59 10° 160° (SSE) 1,927 5.4 -7.0°
Sets 12:12:13 0° 164° (SSE) 2,820 6.2 -6.6°
